Regional Weather Roundup
Issued by NWS

Home | Current Version | Previous Version | Text Only | Print | Product List | Glossary Off
Versions: 1 2 3 4 5 6 7 8 9 10 11 12 13 14 15 16 17 18 19 20 21 22 23 24 25 26 27 28 29 30 31 32 33 34 35 36 37 38 39 40 41 42 43 44 45 46 47 48 49 50

000
ASUS45 KABQ 312110
RWRNM
WEATHER ROUNDUP FOR NEW MEXICO
NATIONAL WEATHER SERVICE ALBUQUERQUE NM
200 PM MST SAT JAN 31 2015

NOTE: "FAIR" MEANS FEW OR NO CLOUDS BELOW 12,000 FEET AGL WITH NO
       SIGNIFICANT WEATHER OR OBSTRUCTIONS TO VISION.

      THIS PRODUCT IS RELEASED AS TWO VERSIONS.  ONE VERSION NEAR
      THE TOP OF THE HOUR CONTAINING PRELIMINARY DATA FROM ALBUQUERQUE
      AND OTHER STATIONS.  A FINAL VERSION WITH ADDITIONAL DATA IS
      ISSUED ABOUT 10 MINUTES AFTER THE HOUR.

NMZ501-503-504-510>518-312200-
NORTHWEST PLATEAU/NORTHCENTRAL MOUNTAINS

CITY           SKY/WX    TMP DP  RH WIND       PRES   REMARKS
FARMINGTON     CLOUDY    37  35  92 W9        29.88F WCI  30
LOS ALAMOS     FOG       31  31 100 CALM      29.87F VSB<1/4
SANTA FE       CLOUDY    34  31  88 S5        29.86F WCI  30
TAOS           CLOUDY    30  28  93 S3        29.86S
ANGEL FIRE     LGT RAIN  34  30  86 CALM      29.81R

$$
NMZ402-403-502-505>509-312200-
WESTCENTRAL MOUNTAINS/SOUTHWEST MOUNTAINS

CITY           SKY/WX    TMP DP  RH WIND       PRES   REMARKS
GALLUP         CLOUDY    39  35  86 S3        29.90F
GRANTS         CLOUDY    38  33  81 CALM      29.90S
SILVER CITY    CLOUDY    45  43  93 S9        29.89F

$$
NMZ407-409-411-412-312200-
SOUTHERN DESERTS

CITY           SKY/WX    TMP DP  RH WIND       PRES   REMARKS
LORDSBURG      RAIN      46  45  93 E3        29.87S
DEMING         LGT RAIN  50  45  83 W5        29.86F
LAS CRUCES     CLOUDY    51  45  80 W7        29.87F
HOLLOMAN AFB   CLOUDY    48  46  95 S7        29.86F
ALAMOGORDO     CLOUDY    48  46  93 SW6       29.87F
T OR C         CLOUDY    48  42  80 SW5       29.85F

$$
NMZ519>523-312200-
CENTRAL VALLEYS/CENTRAL HIGHLANDS

CITY           SKY/WX    TMP DP  RH WIND       PRES   REMARKS
ALBUQUERQUE    CLOUDY    39  35  86 CALM      29.89F FOG
DOUBLE EAGLE   PTSUNNY   36  32  87 CALM      29.90S
MORIARTY ARPT  CLOUDY    37  32  82 CALM      29.87F
CLINES CORNERS CLOUDY    33  31  92 W14       29.82F FOG     WCI  23
BELEN          CLOUDY    42  38  86 NE6       29.89S
SOCORRO        CLOUDY    43  39  86 CALM      29.87F

$$
NMZ524>526-539-540-312200-
SOUTHCENTRAL MOUNTAINS

CITY           SKY/WX    TMP DP  RH WIND       PRES   REMARKS
RUIDOSO        MOSUNNY   46  36  66 SW18G24   29.86F

$$
NMZ527>531-312200-
NORTHEAST HIGHLANDS/NORTHEAST PLAINS

CITY           SKY/WX    TMP DP  RH WIND       PRES   REMARKS
LAS VEGAS      PTSUNNY   35  32  88 S21       29.78F WCI  24
RATON          LGT SNOW  32  30  92 CALM      29.79F FOG
CLAYTON        CLOUDY    41  34  76 SW12      29.78F

$$
NMZ532>537-312200-
EASTCENTRAL PLAINS

CITY           SKY/WX    TMP DP  RH WIND       PRES   REMARKS
TUCUMCARI      CLOUDY    42  38  85 SW7       29.82F
CANNON AFB     NOT AVBL
CLOVIS AIRPORT CLOUDY    39  37  93 SW12      29.85F WCI  32

$$
NMZ028-029-538-312200-
SOUTHEAST PLAINS

CITY           SKY/WX    TMP DP  RH WIND       PRES   REMARKS
ROSWELL        CLOUDY    45  40  82 SE5       29.85F
ARTESIA        CLOUDY    46  45  93 SE6       29.86F
CARLSBAD       CLOUDY    47  41  80 N5        29.86F
HOBBS          FOG       45  45 100 SE8       29.87F VSB 1/4


$$



USA.gov is the U.S. government's official web portal to all federal, state and local government web resources and services.